Regional Weather Roundup
Issued by NWS Grand Forks, ND

Home | Current Version | Previous Version | Graphics & Text | Print | Product List | Glossary On
Versions: 1 2 3 4 5 6 7 8 9 10 11 12 13 14 15 16 17 18 19 20 21 22 23 24 25 26 27 28 29 30 31 32 33 34 35 36 37 38 39 40 41 42 43 44 45 46 47 48 49 50
000
ASUS43 KFGF 201710
RWRFGF
PRAIRIE TO PINES  WEATHER ROUNDUP
NATIONAL WEATHER SERVICE EASTERN NORTH DAKOTA/GRAND FORKS ND
1200 PM CDT SUN APR 20 2014

 **SATELLITE DATA USED TO AUGMENT SKY COVER AT AUTOMATED STATIONS**
 *****  WEATHER ACROSS EASTERN NORTH DAKOTA  *****

CITY           SKY/WX    TMP DP  RH WIND       PRES   REMARKS
GRAND FORKS    MOSUNNY   55  38  52 SE7       30.00F
GRAND FRKS AFB SUNNY     58  37  46 S8        30.00F
GRAND FRKS NWS   N/A     57 N/A N/A SE5         N/A
DEVILS LAKE    MOSUNNY   57  37  47 S12       29.95F
FARGO          SUNNY     63  38  39 S13       30.00F
WAHPETON ARPT  SUNNY     64  32  29 S12       30.01S
$$

 ***** WEATHER ACROSS CENTRAL AND WESTERN NORTH DAKOTA  *****

CITY           SKY/WX    TMP DP  RH WIND       PRES   REMARKS
BISMARCK       MOSUNNY   68  31  25 S13       29.92F
MINOT          MOSUNNY   61  33  35 S15       29.85F
JAMESTOWN      SUNNY     64  39  39 S12G21    29.95F
MINOT AFB      MOSUNNY   62  38  41 S13       29.85F
GARRISON         N/A     60  34  37 S9        29.88F
WILLISTON      PTSUNNY   59  34  39 SW14      29.83F
DICKINSON      CLOUDY    65  32  29 S16       29.87S
HETTINGER      PTSUNNY   66  35  31 S13       29.92R
$$

 *****  OTHER AIRPORT OBSERVATIONS IN OUR AREA  *****

CITY           SKY/WX    TMP DP  RH WIND       PRES   REMARKS
WALHALLA         N/A     48  34  57 E9        30.01S
GRAFTON AIRPOR FAIR      48  36  61 E6        30.01F
VALLEY CITY AR FAIR      63  37  39 S15       29.98F
CANDO          FAIR      55  37  50 S14       29.95S
CAVALIER APRT  FAIR      48  36  61 E7        30.01F
GWINNER        SUNNY     66  39  37 SE14      30.00F
SHEYENNE NWR     N/A     67  37  33 S10       29.95
ROLLA          FAIR      54  41  62 S15       29.94F
 ***** THE ABOVE OBSERVATIONS ARE NON NWS ARE NOT QUALITY
       CONTROLLED AND MAY MIS-REPORT RAIN FOR SNOW...
$$

  *****  WEATHER ACROSS NORTHERN MINNESOTA  *****

CITY           SKY/WX    TMP DP  RH WIND       PRES   REMARKS
FLAG ISLAND    SUNNY     37  30  75 SE7       30.02S
WARROAD        SUNNY     48  37  66 S6        30.03S
ROSEAU         SUNNY     48  36  61 CALM      30.03S
HALLOCK        CLOUDY    48  36  61 SE5       30.02S
THF RVR FALLS  SUNNY     54  36  50 S3        30.03S
BAUDETTE       SUNNY     49  35  58 VRB5      30.03F
WASKISH        SUNNY     52  36  54 W6        30.03S
CROOKSTON      SUNNY     55  37  50 S3        30.01F
$$
  *****  WEATHER ACROSS CENTRAL AND WEST MINNESOTA  *****

CITY           SKY/WX    TMP DP  RH WIND       PRES   REMARKS
FOSSTON        SUNNY     61  32  33 CALM      30.02S
BEMIDJI        SUNNY     59  32  35 SE7       30.02R
PARK RAPIDS    SUNNY     61  29  29 CALM      30.02S
ELBOW LAKE     FAIR      65  35  32 SE9       30.01F
WADENA         SUNNY     63  34  34 SE8       30.02S
DETROIT LAKES  SUNNY     63  32  31 S7        30.02S
MOORHEAD       NOT AVBL
FERGUS FALLS   SUNNY     64  28  25 S9        29.98F
MORRIS MN      SUNNY     66  37  34 SE13      30.01F
STAPLES        SUNNY     63  30  29 S7        30.03S
$$
  *****  WEATHER ELSEWHERE ACROSS MINNESOTA  *****

CITY           SKY/WX    TMP DP  RH WIND       PRES   REMARKS
DULUTH         SUNNY     57  34  41 N7        30.04R
INTRNTL FALLS  SUNNY     50  33  52 NW6       30.03S
ELY            SUNNY     54  27  35 NW3       30.03S
CLOQUET        SUNNY     59  32  36 W8        30.04S
WHEATON        SUNNY     70  41  35 SE10      30.03S
BRAINERD       SUNNY     66  29  24 CALM      30.04F
HIBBING        SUNNY     59  33  37 N5        30.03S
ALEXANDRIA     SUNNY     64  39  39 SE8       30.03S
SAINT CLOUD    SUNNY     64  38  38 VRB5      30.04S
MINNEAPOLIS    MOSUNNY   67  40  37 VRB7      30.03F
$$

  *****  WEATHER ACROSS SOUTH DAKOTA  *****

CITY           SKY/WX    TMP DP  RH WIND       PRES   REMARKS
SIOUX FALLS    MOSUNNY   72  37  28 E16       29.98F
BROOKINGS      NOT AVBL
WATERTOWN      SUNNY     68  29  23 S10       30.00F
HURON          SUNNY     71  26  18 SE10      29.98F
SISSETON         N/A     63  37  38 SE13      30.00F
ABERDEEN       SUNNY     69  31  24 S12       29.98F
MITCHELL       SUNNY     73  30  20 SE15      29.98S
PIERRE         SUNNY     69  30  23 SE18      29.92F
MOBRIDGE       SUNNY     67  28  23 S16       29.93F
RAPID CITY     SUNNY     67  38  34 N7        29.92S
$$

  *****  SOME WEATHER IN NEARBY STATES *****

CITY           SKY/WX    TMP DP  RH WIND       PRES   REMARKS
GLASGOW MT     SUNNY     60  26  27 W30G45    29.91S
GREAT FALLS MT SUNNY     53  17  24 W31G38    30.05F
CHEYENNE WY    SUNNY     65  31  28 NW17G25   30.09S
SCOTTSBLUFF NE SUNNY     70  42  36 W10       30.00F
OMAHA NE       CLOUDY    75  50  41 SW9       29.98F
DES MOINES IA  PTSUNNY   80  52  37 SW16G25   30.02F
DAVENPORT IA   SUNNY     78  44  29 S15       30.12F
CHICAGO IL     PTSUNNY   71  37  28 S13       30.17F
EAU CLAIRE WI  CLOUDY    62  50  64 S10       30.05S
LA CROSSE WI   LGT RAIN  55  51  86 S6        30.09S
$$

  *****  SOME NATIONAL WEATHER *****

CITY           SKY/WX    TMP DP  RH WIND       PRES   REMARKS
LA GUARDIA NY  PTSUNNY   53  26  35 NE7       30.47F
RALEIGH NC     PTSUNNY   63  42  46 NE16G25   30.24F
ATLANTA GA     MOSUNNY   66  41  40 NE12G21   30.22F
NEW ORLEANS LA MOSUNNY   77  62  59 NE9       30.19S
OKLAHOMA CITY  CLOUDY    70  56  61 S12       30.10F
ALBUQUERQUE NM PTSUNNY   60  40  47 MISG      30.16F
SALT LAKE CITY MOSUNNY   62  32  32 N13       30.16R
LOS ANGELES CA SUNNY     66  56  70 CALM      30.07S
BOISE ID       SUNNY     52  29  41 NW13      30.29R
SEATTLE WA     PTSUNNY   52  37  56 SE9       30.30S
$$

*** WEATHER ACROSS MANITOBA...SASKATCHEWAN AND ONTARIO ***
                ***ONTARIO***

CITY           SKY/WX    TMP DP  RH WIND       PRES   REMARKS
GERALDTON      MOSUNNY   45  36  70 SW14      29.95S
THUNDER BAY    PTSUNNY   50  37  62 SW6       30.00F
SIOUX LOOKOUT  PTSUNNY   41  28  60 NW9G21    29.99S
TORONTO        MOSUNNY   54  30  40 SE8       30.32F
BIG TROUT LK   LGT RAIN  36  32  87 W16G22    29.77R
PICKLE LAKE    PTSUNNY   37  28  70 W17G25    29.91R
DRYDEN         MOSUNNY   41  28  60 W13       30.00S
KENORA         PTSUNNY   41  28  60 W8G20     30.02S
$$
                *** MANITOBA***

CITY           SKY/WX    TMP DP  RH WIND       PRES   REMARKS
BRANDON        PTSUNNY   45  37  76 E14       29.96F
DAUPHIN        SUNNY     43  30  61 NE5       29.97F
ISLAND LAKE    FLURRIES  34  34 100 NW12      29.90R
PILOT MOUND      N/A     52  37  58 SE14        N/A
THE PAS        PTSUNNY   37  28  70 N5        29.96S
THOMPSON       CLOUDY    32  32 100 NW5       29.95R
WINNIPEG       PTSUNNY   45  32  61 NW5       30.03F
LYNN LAKE      MOSUNNY   37  23  56 VRB2      29.94R
CHURCHILL      MOSUNNY   21  18  86 N9        29.99R WCI  11
GILLAM         CLOUDY    30  28  93 N10       29.91R WCI  21
$$
                ***SASKATCHEWAN***

CITY           SKY/WX    TMP DP  RH WIND       PRES   REMARKS
ESTEVAN        CLOUDY    55  39  54 SE9       29.82F
KINDERSLEY     PTSUNNY   46  36  66 W18G25    29.77R
LLOYDMINSTER   CLOUDY    43  32  65 NE5       29.85R
PRINCE ALBERT  PTSUNNY   39  30  70 SE7       29.91S
REGINA         CLOUDY    45  37  76 S6        29.82S
YORKTON        SUNNY     41  32  70 E13       29.90F
N. BATTLEFORD  CLOUDY    43  32  65 E14       29.83S
LA RONGE       PTSUNNY   37  25  60 SE2       29.94S
SASKATOON      CLOUDY    39  32  75 E6        29.86F
SWIFT CURRENT  MOSUNNY   55  30  38 W36G43    29.79R
$$
NOTE: THESE ARE AUTOMATED STATIONS WITH LIMITED QUALITY CONTROL
      "FAIR" INDICATES FEW OR NO CLOUDS BELOW 12,000 FEET WITH NO
      SIGNIFICANT WEATHER AND/OR OBSTRUCTIONS TO VISIBILITY.
      SKY/WX - SKY CONDITION AND SIGNIFICANT WEATHER.
      TMP - AIR TEMPERATURE.    DP   - DEWPOINT TEMPERATURE.
      RH  - RELATIVE HUMIDITY.  PRES - PRESSURE.
      HX  - HEAT INDEX.         WCI  - WIND CHILL INDEX.
$



USA.gov is the U.S. government's official web portal to all federal, state and local government web resources and services.